Regional Weather Roundup
Issued by NWS Sioux Falls, SD

Home | Current Version | Previous Version | Graphics & Text | Print | Product List | Glossary On
Versions: 1 2 3 4 5 6 7 8 9 10 11 12 13 14 15 16 17 18 19 20 21 22 23 24 25 26 27 28 29 30 31 32 33 34 35 36 37 38 39 40 41 42 43 44 45 46 47 48 49 50
000
ASUS43 KFSD 200002
RWRFSD

WEATHER ROUNDUP FOR SE SOUTH DAKOTA/SW MINNESOTA/NW IOWA
NATIONAL WEATHER SERVICE SIOUX FALLS SD
700 PM CDT SUN OCT 19 2014

NOTE: "FAIR" INDICATES FEW OR NO CLOUDS BELOW 12,000 FEET WITH NO
SIGNIFICANT WEATHER AND OR OBSTRUCTIONS TO VISIBILITY.


SDZ038>040-050-052>070-200100-
SOUTHEAST SOUTH DAKOTA

CITY           SKY/WX    TMP DP  RH WIND       PRES   REMARKS
CHAMBERLAIN    CLEAR     64  37  38 NW7       29.95R
6HR MIN TEMP:  64; 6HR MAX TEMP:  76;

HURON          CLEAR     61  39  44 NW8       29.91R
6HR MIN TEMP:  61; 6HR MAX TEMP:  78;

MADISON        FAIR      61  37  41 NW3       29.91R
MITCHELL       CLEAR     63  39  41 NW8       29.91R
6HR MIN TEMP:  63; 6HR MAX TEMP:  79;

SIOUX FALLS    CLEAR     61  39  44 NW6       29.90R
6HR MIN TEMP:  61; 6HR MAX TEMP:  74;

WINNER         FAIR      67  36  31 NW8       29.97R
YANKTON        CLEAR     72  41  33 W6        29.90S
$$

MNZ071-072-080-081-089-090-097-098-200100-
SOUTHWEST MINNESOTA

CITY           SKY/WX    TMP DP  RH WIND       PRES   REMARKS
FAIRMONT       CLEAR     63  43  48 W8        29.85R
JACKSON        CLEAR     61  39  44 NW7       29.88R
LUVERNE        CLEAR     63  37  39 NW7       29.90R
MARSHALL       CLEAR     61  37  41 NW8       29.86R
6HR MIN TEMP:  61; 6HR MAX TEMP:  75;

MONTEVIDEO     CLEAR     64  39  39 N7        29.86R
PIPESTONE      CLEAR     64  36  34 N6        29.90R
REDWOOD FALLS  CLEAR     66  39  37 NW9       29.84R
TRACY          CLEAR     65  38  37 NW7       29.87R
WINDOM         CLEAR     63  39  42 W9        29.87R
WORTHINGTON    CLEAR     59  39  47 W9        29.90R
$$

IAZ001>003-012>014-020>022-031-032-NEZ013-014-SDZ071-200100-
NORTHWEST IOWA

CITY           SKY/WX    TMP DP  RH WIND       PRES   REMARKS
CHEROKEE       CLEAR     60  47  61 CALM      29.89S
DENISON        CLEAR     64  48  55 W3        29.90R
ESTHERVILLE    CLEAR     59  44  57 W8        29.86R
LE MARS        CLEAR     61  46  59 S5        29.90S
ORANGE CITY    CLEAR     64  45  48 W6        29.90R
SHELDON        CLEAR     61  45  55 W7        29.88R
SIOUX CITY     CLEAR     63  45  51 W3        29.90R
6HR MIN TEMP:  63; 6HR MAX TEMP:  76;

SPENCER        CLEAR     59  44  57 SW8       29.88R
6HR MIN TEMP:  59; 6HR MAX TEMP:  72;

STORM LAKE     CLEAR     59  45  58 W6        29.91S
$$

ABBREVIATIONS USED IN REMARKS
   TC - TEMPERATURE IN CELSIUS
  WCI - WIND CHILL INDEX
   HX - HEAT INDEX
  VSB - VISIBILITY




USA.gov is the U.S. government's official web portal to all federal, state and local government web resources and services.